Dallas/Ft Worth, TX

1:47 AM CDT on June 22, 2018 (GMT -0500)
Dallas-Fort Worth International

Weather History for KDFW - June, 2018

Change the Weather History Date:

Wednesday, June 13, 2018

  Actual Average Record
Temperature  
Mean Temperature 88 °F 81 °F  
Max Temperature 97 °F 91 °F 102 °F (1924)
Min Temperature 78 °F 71 °F 59 °F (1979)
Degree Days  
Heating Degree Days 0 0  
Month to date heating degree days 0 0  
Since 1 June heating degree days 0 0  
Since 1 July heating degree days 1931 2284  
Cooling Degree Days 23 16  
Month to date cooling degree days 255 192  
Year to date cooling degree days 846 614  
Since 1 June cooling degree days 255 192  
Growing Degree Days 38 (Base 50)    
Moisture  
Dew Point 67 °F    
Average Humidity 55    
Maximum Humidity 79    
Minimum Humidity 30    
Precipitation  
Precipitation 0.00 in 0.13 in 1.82 in (1989)
Month to date precipitation 1.13 1.80  
Year to date precipitation 18.83 18.05  
Sea Level Pressure  
Sea Level Pressure 29.94 in    
Wind  
Wind Speed 12 mph (South)    
Max Wind Speed 21 mph    
Max Gust Speed 26 mph    
Visibility 10 miles    
Events      
T = Trace of Precipitation, MM = Missing Value Source: NWS Daily Summary

Daily Weather History Graph

Daily Weather History Graph

Search for Another Location

Airport or City:

Astronomy

Jun. 13, 2018 Rise Set
Actual Time 6:19 AM CDT 8:37 PM CDT
Civil Twilight 5:50 AM CDT 9:06 PM CDT
Nautical Twilight 5:15 AM CDT 9:41 PM CDT
Astronomical Twilight 4:37 AM CDT 10:19 PM CDT
Moon 6:17 AM CDT (6/13) 8:37 PM CDT (6/13)
Length of Visible Light 15h 15m
Length of Day
14h 18m
Waning Crescent, 0% of the Moon is Illuminated
Jun 13
Waning Crescent
Jun 13
New
Jun 20
First Quarter
Jun 27
Full
Jul 6
Last Quarter

Hourly Weather History & Observations

Time (CDT) Temp. Heat Index Dew Point Humidity Pressure Visibility Wind Dir Wind Speed Gust Speed Precip Events Conditions
12:53 AM 84.9 °F 87.6 °F 66.9 °F 55% 29.89 in 10.0 mi South 11.5 mph - N/A   Mostly Cloudy
1:53 AM 84.0 °F 86.5 °F 66.9 °F 56% 29.90 in 10.0 mi South 12.7 mph - N/A   Mostly Cloudy
2:53 AM 82.9 °F 85.8 °F 68.0 °F 60% 29.89 in 10.0 mi South 15.0 mph - N/A   Mostly Cloudy
3:53 AM 82.0 °F 84.9 °F 68.0 °F 62% 29.90 in 10.0 mi SSW 12.7 mph - N/A   Mostly Cloudy
4:53 AM 80.1 °F 82.9 °F 69.1 °F 69% 29.94 in 10.0 mi South 16.1 mph - N/A   Mostly Cloudy
6:53 AM 78.1 °F - 70.0 °F 76% 29.98 in 10.0 mi SSW 10.4 mph - N/A   Mostly Cloudy
7:53 AM 79.0 °F - 71.1 °F 77% 29.98 in 10.0 mi South 15.0 mph - N/A   Overcast
8:53 AM 80.1 °F 83.8 °F 72.0 °F 76% 30.00 in 10.0 mi SSW 15.0 mph - N/A   Overcast
9:53 AM 84.0 °F 89.6 °F 72.0 °F 67% 30.01 in 10.0 mi SW 17.3 mph 25.3 mph N/A   Mostly Cloudy
10:53 AM 84.9 °F 90.1 °F 71.1 °F 63% 30.02 in 10.0 mi SW 12.7 mph - N/A   Mostly Cloudy
11:53 AM 88.0 °F 93.8 °F 71.1 °F 57% 30.01 in 10.0 mi SSW 12.7 mph - N/A   Overcast
12:53 PM 91.0 °F 96.6 °F 70.0 °F 50% 29.99 in 10.0 mi SSW 12.7 mph - N/A   Overcast
1:53 PM 91.9 °F 95.4 °F 66.9 °F 44% 29.97 in 10.0 mi South 8.1 mph 19.6 mph N/A   Mostly Cloudy
2:53 PM 93.9 °F 96.1 °F 64.9 °F 38% 29.94 in 10.0 mi SW 8.1 mph 16.1 mph N/A   Mostly Cloudy
3:53 PM 95.0 °F 99.0 °F 66.9 °F 40% 29.93 in 10.0 mi South 12.7 mph - N/A   Mostly Cloudy
4:53 PM 96.1 °F 97.3 °F 63.0 °F 33% 29.90 in 10.0 mi South 11.5 mph - N/A   Mostly Cloudy
5:53 PM 96.1 °F 96.4 °F 61.0 °F 31% 29.88 in 10.0 mi South 13.8 mph - N/A   Mostly Cloudy
6:53 PM 95.0 °F 94.4 °F 59.0 °F 30% 29.86 in 10.0 mi SSE 12.7 mph - N/A   Partly Cloudy
7:53 PM 93.0 °F 93.0 °F 61.0 °F 34% 29.87 in 10.0 mi South 9.2 mph - N/A   Partly Cloudy
8:53 PM 90.0 °F 90.0 °F 61.0 °F 38% 29.89 in 10.0 mi SSE 8.1 mph - N/A   Partly Cloudy
9:53 PM 87.1 °F 87.8 °F 63.0 °F 44% 29.91 in 10.0 mi ESE 8.1 mph - N/A   Partly Cloudy
10:53 PM 84.0 °F 86.5 °F 66.9 °F 56% 29.94 in 10.0 mi SE 8.1 mph - N/A   Partly Cloudy
11:53 PM 86.0 °F 87.6 °F 64.9 °F 49% 29.94 in 10.0 mi South 11.5 mph - N/A   Clear